www.pogodaiklimat.ru

Погода и климат >> Архив погоды >> Австралия >> Новый Южный Уэльс >> Фоулерс Гэп


ПОГОДА в Фоулерс Гэп

  • Прогноз погоды в Фоулерс Гэп
  • Монитор погоды в Фоулерс Гэп

АРХИВ ПОГОДЫ в Фоулерс Гэп

Время (UTC), дата Ветер
(напр.,м/с)
 
Видим.   Явления Облачность Т
(С)
Тd
(С)
f
(%)
Тe
(С)
Тes
(С)
Комфортность P
(гПа)
Po
(гПа)
Тmin
(С)
Tmax
(С)
R
(мм)
R24
(мм)
S
(см)
04 12.02 З 13 н/о н/о +36.4 -1.5 9 +33 +33 жарко 998.4 978.2
05 12.02 З 12 н/о н/о +36.3 -0.2 10 +33 +33 жарко 997.8 977.6
07 12.02 З 12 н/о н/о +34.5 +3.1 14 +32 +32 жарко 998.2 978.0
08 12.02 ЮЗ 11 н/о н/о +31.7 +8.0 23 +31 +31 жарко 999.5 979.2
10 12.02 ЮЗ 10 н/о н/о +27.6 +4.6 23 +26 +26 жарко 1002.1 981.8
11 12.02 Ю 11 н/о н/о +24.0 +8.8 38 +25 +25 комфорт 1004.1 983.8
13 12.02 Ю 10 н/о н/о +20.8 +7.4 42 +21 +21 комфорт 1006.8 986.4 +37.5
14 12.02 Ю 8 н/о н/о +19.9 +6.3 41 +20 +20 1007.4 987.0
16 12.02 Ю 7 н/о н/о +18.2 +4.4 40 +18 +18 1008.2 987.8
17 12.02 Ю 7 н/о н/о +17.3 +2.5 37 +16 +16 1008.6 988.2
19 12.02 Ю 8 н/о н/о +15.2 +3.0 44 +13 +13 1010.2 989.7
20 12.02 Ю 6 н/о н/о +14.4 +2.0 43 +13 +13 1011.3 990.8
22 12.02 Ю 8 н/о н/о +15.7 +3.5 44 +14 +14 1013.5 993.0
23 12.02 Ю 8 н/о н/о +16.9 +2.9 39 +16 +16 1014.0 993.5
01 13.02 Ю 7 н/о н/о +19.6 +2.0 31 +19 +19 1014.4 993.8 +14.3
02 13.02 Ю 7 н/о н/о +19.8 +1.7 30 +20 +20 1014.0 993.5
04 13.02 Ю 7 н/о н/о +22.5 +0.9 24 +22 +22 комфорт 1013.4 992.9
05 13.02 Ю 7 н/о н/о +23.2 +0.9 23 +22 +22 комфорт 1013.0 992.5
07 13.02 Ю 6 н/о н/о +25.1 +0.6 20 +24 +24 комфорт 1012.5 992.0
08 13.02 Ю 7 н/о н/о +24.0 +0.4 21 +23 +23 комфорт 1012.8 992.3
10 13.02 Ю 6 н/о н/о +22.0 +0.5 24 +21 +21 комфорт 1014.5 993.9
11 13.02 ЮВ 5 н/о н/о +21.3 +0.5 25 +21 +21 комфорт 1015.4 994.8
13 13.02 ЮВ 5 н/о н/о +19.5 +0.5 28 +20 +20 1015.9 995.3 +25.2
14 13.02 Ю 4 н/о н/о +18.4 +0.5 30 +18 +18 1016.0 995.4
16 13.02 Ю 4 н/о н/о +16.6 +0.7 34 +16 +16 1015.5 994.9
17 13.02 Ю 4 н/о н/о +16.4 +0.5 34 +16 +16 1015.4 994.8
19 13.02 Ю 7 н/о н/о +15.7 +1.1 37 +14 +14 1016.2 995.6
20 13.02 Ю 7 н/о н/о +15.1 +1.6 40 +13 +13 1017.0 996.4
22 13.02 Ю 7 н/о н/о +17.6 +1.6 34 +17 +17 1019.1 998.4
23 13.02 ЮВ 8 н/о н/о +20.0 +1.4 29 +20 +20 1019.5 998.8
01 14.02 ЮВ 7 н/о н/о +23.3 +1.0 23 +22 +22 комфорт 1019.3 998.6 +15.0
02 14.02 ЮВ 6 н/о н/о +24.5 +0.1 20 +23 +23 комфорт 1018.6 998.0
04 14.02 ЮВ 8 н/о н/о +26.4 -0.6 17 +24 +24 комфорт 1016.9 996.3
05 14.02 ЮВ 7 н/о н/о +27.6 -1.3 15 +25 +25 комфорт 1016.3 995.7
07 14.02 ЮВ 7 н/о н/о +27.9 -2.0 14 +25 +25 комфорт 1015.8 995.2
08 14.02 ЮВ 6 н/о н/о +28.4 -1.6 14 +26 +26 жарко 1015.9 995.3
10 14.02 ЮВ 5 н/о н/о +25.7 -1.2 17 +24 +24 комфорт 1017.1 996.5
11 14.02 Ю 5 н/о н/о +24.4 -0.7 19 +23 +23 комфорт 1017.6 997.0
13 14.02 Ю 4 н/о н/о +21.6 +0.2 24 +21 +21 комфорт 1018.1 997.5 +29.4
14 14.02 Ю 5 н/о н/о +21.3 +0.5 25 +21 +21 комфорт 1018.0 997.4
16 14.02 Ю 5 н/о н/о +20.1 0.0 26 +20 +20 1017.4 996.8
17 14.02 ЮВ 4 н/о н/о +19.5 0.0 27 +20 +20 1017.2 996.6
19 14.02 Ю 4 н/о н/о +17.6 +0.3 31 +17 +17 1017.9 997.3
20 14.02 Ю 4 н/о н/о +16.9 +0.1 32 +17 +17 1018.4 997.8
22 14.02 ЮВ 6 н/о н/о +22.3 +1.3 25 +22 +22 комфорт 1019.8 999.1
23 14.02 ЮВ 8 н/о н/о +24.5 +1.4 22 +23 +23 комфорт 1019.9 999.2
01 15.02 ЮВ 6 н/о н/о +28.8 +0.5 16 +26 +26 жарко 1019.1 998.4 +16.1
02 15.02 ЮВ 6 н/о н/о +30.3 -1.2 13 +27 +27 жарко 1018.1 997.5
04 15.02 Ю 5 н/о н/о +32.7 -0.4 12 +29 +29 жарко 1016.2 995.6
05 15.02 СВ 4 н/о н/о +32.8 -1.5 11 +29 +29 жарко 1015.4 994.8
07 15.02 ЮВ 6 н/о н/о +32.8 -2.8 10 +29 +29 жарко 1014.5 993.9
08 15.02 ЮВ 6 н/о н/о +32.8 -2.8 10 +29 +29 жарко 1014.4 993.8
10 15.02 Ю 5 н/о н/о +30.0 -2.5 12 +27 +27 жарко 1015.3 994.7
11 15.02 Ю 5 н/о н/о +28.4 -2.6 13 +26 +26 жарко 1015.8 995.2
13 15.02 Ю 5 н/о н/о +26.5 -2.2 15 +24 +24 комфорт 1015.8 995.2 +34.3
14 15.02 Ю 6 н/о н/о +26.0 -1.7 16 +24 +24 комфорт 1015.5 994.9
16 15.02 Ю 6 н/о н/о +25.0 -0.9 18 +23 +23 комфорт 1014.8 994.2
17 15.02 Ю 7 н/о н/о +25.2 +0.7 20 +24 +24 комфорт 1014.7 994.1
19 15.02 Ю 5 н/о н/о +23.8 +1.4 23 +23 +23 комфорт 1014.8 994.2
20 15.02 ЮВ 3 н/о н/о +23.4 +1.7 24 +23 +23 комфорт 1014.8 994.2
22 15.02 ЮВ 5 н/о н/о +26.3 +0.1 18 +24 +24 комфорт 1015.3 994.7
23 15.02 ЮВ 7 н/о н/о +29.8 -1.5 13 +27 +27 жарко 1015.3 994.7
01 16.02 ЮВ 7 н/о н/о +31.8 +1.0 14 +29 +29 жарко 1014.7 994.1 +23.3
02 16.02 ЮВ 4 н/о н/о +33.6 +5.2 17 +31 +31 жарко 1013.9 993.4
04 16.02 З 3 н/о н/о +35.8 +7.0 17 +34 +34 очень
жарко
1012.0 991.5
05 16.02 Ю 4 н/о н/о +36.2 +7.3 17 +34 +34 очень
жарко
1011.0 990.5
07 16.02 ЮВ 2 н/о н/о +36.4 +4.6 14 +34 +34 очень
жарко
1009.9 989.4
08 16.02 ЮЗ 3 н/о н/о +36.2 +5.5 15 +34 +34 очень
жарко
1009.6 989.1
10 16.02 Ю 3 н/о н/о +33.8 +4.5 16 +31 +31 жарко 1010.3 989.8
11 16.02 Ю 5 н/о н/о +32.8 +3.7 16 +30 +30 жарко 1010.8 990.3
13 16.02 Ю 5 н/о н/о +30.0 +3.1 18 +28 +28 жарко 1011.1 990.6 +38.1
14 16.02 Ю 5 н/о н/о +28.7 +2.8 19 +27 +27 жарко 1011.1 990.6
16 16.02 ЮВ 6 н/о н/о +27.7 +2.0 19 +26 +26 жарко 1010.3 989.8
17 16.02 Ю 5 н/о н/о +26.5 +1.7 20 +25 +25 комфорт 1010.1 989.6
19 16.02 ЮВ 4 н/о н/о +25.4 +0.8 20 +24 +24 комфорт 1010.0 989.5
20 16.02 ЮВ 4 н/о н/о +25.3 +1.4 21 +24 +24 комфорт 1010.1 989.6
22 16.02 ЮВ 5 н/о н/о +28.8 +2.1 18 +27 +27 жарко 1010.5 990.0
23 16.02 В 5 н/о н/о +31.4 +4.2 18 +29 +29 жарко 1010.5 990.0
01 17.02 В 4 н/о н/о +35.1 +8.0 19 +33 +33 жарко 1010.0 989.5 +25.1
02 17.02 С 3 н/о н/о +36.3 +9.8 20 +35 +35 очень
жарко
1008.9 988.5
04 17.02 З 3 н/о н/о +38.1 +7.0 15 +36 +36 очень
жарко
1007.2 986.8
05 17.02 З 4 н/о н/о +39.0 +7.7 15 +37 +37 очень
жарко
1005.9 985.5
07 17.02 Ю 4 н/о н/о +38.3 +7.1 15 +36 +36 очень
жарко
1004.8 984.4
08 17.02 З 3 н/о н/о +38.4 +7.2 15 +36 +36 очень
жарко
1004.7 984.3
10 17.02 В 5 н/о н/о +36.5 +8.4 18 +35 +35 очень
жарко
1005.6 985.2
11 17.02 СВ 5 н/о н/о +33.4 +12.4 28 +34 +34 очень
жарко
1006.4 986.0
13 17.02 штиль 0 н/о н/о +30.5 +11.5 31 +31 +31 жарко 1006.4 986.0 +40.5
14 17.02 Ю 2 н/о н/о +29.5 +11.5 33 +30 +30 жарко 1006.5 986.1
16 17.02 штиль 0 н/о н/о +27.0 +10.2 35 +28 +28 жарко 1006.0 985.6
17 17.02 штиль 0 н/о н/о +26.5 +10.2 36 +27 +27 жарко 1005.7 985.3
19 17.02 штиль 0 н/о н/о +24.9 +8.8 36 +25 +25 комфорт 1005.6 985.2
20 17.02 штиль 0 н/о н/о +26.4 +10.1 36 +27 +27 жарко 1005.7 985.3
22 17.02 штиль 0 н/о н/о +29.1 +10.3 31 +29 +29 жарко 1006.1 985.7
23 17.02 СВ 5 н/о н/о +33.1 +11.0 26 +33 +33 жарко 1006.3 985.9
01 18.02 С 5 н/о н/о +37.8 +11.0 20 +37 +37 очень
жарко
1005.7 985.3 +24.8
02 18.02 С 6 н/о н/о +38.9 +9.4 17 +37 +37 очень
жарко
1005.1 984.7
04 18.02 З 6 н/о н/о +40.2 +2.8 10 +37 +37 очень
жарко
1003.5 983.2
05 18.02 З 7 н/о н/о +40.9 +1.8 9 +37 +37 очень
жарко
1002.8 982.5
07 18.02 З 6 н/о н/о +41.2 -1.4 7 +37 +37 очень
жарко
1002.3 982.0
08 18.02 ЮЗ 8 н/о н/о +40.5 -1.9 7 +36 +36 очень
жарко
1002.5 982.2
10 18.02 Ю 11 н/о н/о +34.9 +5.4 16 +32 +32 жарко 1004.5 984.1
11 18.02 Ю 11 н/о н/о +31.0 +9.3 26 +30 +30 жарко 1006.2 985.8
13 18.02 Ю 8 н/о н/о +26.9 +7.9 30 +27 +27 жарко 1008.0 987.6 +42.7
14 18.02 Ю 9 н/о н/о +25.4 +8.0 33 +26 +26 жарко 1008.6 988.2
16 18.02 Ю 7 н/о н/о +23.0 +6.3 34 +24 +24 комфорт 1008.7 988.3
17 18.02 Ю 9 н/о н/о +21.5 +7.0 39 +22 +22 комфорт 1008.8 988.4
19 18.02 Ю 9 н/о н/о +18.7 +7.8 49 +18 +18 1009.6 989.1
20 18.02 Ю 10 н/о н/о +17.3 +8.2 55 +16 +16 1010.2 989.7
22 18.02 Ю 10 н/о н/о +17.7 +7.7 52 +16 +16 1012.0 991.5
23 18.02 Ю 10 н/о н/о +19.0 +7.4 47 +19 +19 1012.4 991.9
01 19.02 Ю 9 н/о н/о +23.0 +4.0 29 +23 +23 комфорт 1012.1 991.6 +16.9
02 19.02 Ю 9 н/о н/о +25.2 +3.2 24 +24 +24 комфорт 1011.5 991.0
04 19.02 Ю 8 н/о н/о +29.9 -0.5 14 +27 +27 жарко 1010.4 989.9

 

Местоположение метеостанции Фоулерс Гэп (Новый Южный Уэльс, Австралия): широта -31.08 долгота 141.70 высота над уровнем моря 181 м.

В архиве по умолчанию представлена погода в Фоулерс Гэп за последнюю неделю. Архивные данные за месяц целиком и за предыдущие месяцы, начиная с января 2011 года, Вы можете получить, выбрав интересующий диапазон дат из раскрывающегося списка и нажав кнопку "Ввод!".


*Определитесь, кто Вы:
робот инопланетянин человек

Внимание! Время в таблицах - всемирное. Для получения местного времени необходимо прибавить поправку, которая равна 10 ч.

Смотрите также архив погоды в соседних городах и на ближайших метеорологических станциях:

Погода в Брокен-Хилле (Новый Южный Уэльс, Австралия) (105 км)
Погода в Уафт Клифс (Новый Южный Уэльс, Австралия) (133 км)
Погода в Уилкании (Новый Южный Уэльс, Австралия) (167 км)
Погода в Тибообере (Новый Южный Уэльс, Австралия) (184 км)
Погода в Юнте (Южная Австралия, Австралия) (261 км)
Погода в Ли-Крике (Южная Австралия, Австралия) (318 км)
Погода в Айванхо (Новый Южный Уэльс, Австралия) (318 км)
Погода в Милдьюре (Новый Южный Уэльс, Австралия) (352 км)
Погода в Ренмарке (Южная Австралия, Австралия) (360 км)
Погода в Мумбе (Южная Австралия, Австралия) (362 км)

Пояснения к столбцам:

Ветер - указаны скорость ветра в м/с - средняя за 10 мин, порывы в срок и между сроками (в фигурных скобках) и направление, откуда дует ветер: С - северный, СВ - северо-восточный, В - восточный, ЮВ - юго-восточный, Ю - южный, ЮЗ - юго-западный, З - западный, СЗ - северо-западный.
Видимость - горизонтальная дальность видимости в метрах или километрах. При видимости от 1 до 10 км при отсутствии осадков обычно наблюдается дымка, при ухудшении видимости до 1 км и менее - туман. В сухую погоду видимость может ухудшаться дымом, пылью или мглою.
Явления - указаны атмосферные явления, наблюдавшиеся в срок или в последний час перед сроком; фигурными скобками обозначены явления, наблюдавшиеся между сроками (за 1-3 часа до срока); квадратными скобками обозначены град или гололедные отложения с указанием их диаметра в мм.
Облачность - указаны через наклонную черту общая и нижняя облачность в баллах и высота нижней границы облаков в метрах; квадратными скобками обозначены формы облаков: Ci - перистые, Cs - перисто-слоистые, Cc - перисто-кучевые, Ac - высококучевые, As - высокослоистые, Sc - слоисто-кучевые, Ns - слоисто-дождевые, Cu - кучевые, Cb - кучево-дождевые. Подробнее классификацию облаков см. в Атласе облаков (PDF).
T - Температура воздуха - температура, измеренная на высоте 2 м над землей.
Td - Температура точки росы - температура, при понижении до которой содержащийся в воздухе водяной пар достигнет насыщения.
f - Относительная влажность воздуха - влажноcть воздуха, измеренная на высоте 2 м над землей.
Te - Эффективная температура - температура, которую ощущает одетый по сезону человек в тени. Характеристика душности погоды. При расчете учитывается влияние влажности воздуха и скорости ветра на теплоощущения человека.
Tes - Эффективная температура на солнце - температура, которую ощущает человек, с поправкой на солнечный нагрев. Характеристика знойности погоды. Зависит от высоты солнца над горизонтом, облачности и скорости ветра. Ночью, в пасмурную погоду, а также при ветре 12 м/с и более поправка равна нулю.
P - Атмосферное давление - приведенное к уровню моря атмосферное давление.
Po - Атмосферное давление - измеренное на уровне метеостанции атмосферное давление.
Tmin - Минимальная температура - минимум температуры воздуха на высоте 2 м над землей.
Tmax - Максимальная температура - максимум температуры воздуха на высоте 2 м над землей.
R - Количество осадков - Количество выпавших осадков за период времени, мм. При наведении курсора мыши на число - период времени, за который выпало указанное количество осадков.
R24 - Количество осадков - Количество выпавших осадков за 24 часа, мм.
S - Снежный покров - Высота снежного покрова, см. При наведении курсора мыши на число - состояние снежного покрова и степень покрытия местности в баллах.